Regional Weather Roundup
Issued by NWS Charleston, SC

Current Version | Previous Version | Text Only | Print | Product List | Glossary Off
Versions: 1 2 3 4 5 6 7 8 9 10 11 12 13 14 15 16 17 18 19 20 21 22 23 24 25 26 27 28 29 30 31 32 33 34 35 36 37 38 39 40 41 42 43 44 45 46 47 48 49 50

000
ASUS42 KCHS 201927
RWRCHS

REGIONAL WEATHER ROUNDUP
NATIONAL WEATHER SERVICE CHARLESTON SC
200 PM EST MON FEB 20 2017

NOTE: "FAIR" INDICATES FEW OR NO CLOUDS BELOW 12,000 FEET WITH NO
SIGNIFICANT WEATHER AND/OR OBSTRUCTIONS TO VISIBILITY.

NOT ALL STATIONS ARE QUALITY CONTROLLED. USE DATA WITH CAUTION...
ESPECIALLY DEWPOINT OBSERVATIONS.

SCZ027-030-031-034>040-042>050-202000-
...SOUTHEAST SOUTH CAROLINA...

CITY           SKY/WX    TMP DP  RH WIND       PRES   REMARKS
N CHARLESTON   MOSUNNY   74  46  36 VRB3      30.14F
WATERFRONT PRK   N/A     63  55  75 SE9       30.15F
MOUNT PLEASANT FAIR      72  50  46 SE8       30.14F
JOHNS ISLAND   FAIR      70  48  46 E9        30.15F
PINOPOLIS        N/A     63  54  72 NW5       30.07F
MONCKS CORNER  FAIR      72  45  37 NW3       30.14F
SUMMERVILLE    FAIR      73  43  33 SE3       30.15F
BEAUFORT MCAS  MOSUNNY   75  51  43 SE7       30.15F
BEAUFORT ARPT  FAIR      72  50  46 E8        30.14F
HILTON HEAD IS MOSUNNY   70  52  52 SE5       30.17F
WALTERBORO     CLEAR     73  43  33 CALM      30.14F
ALLENDALE      FAIR      73  45  35 CALM      30.14F

...SOUTHERN MIDLANDS AND PEE DEE...

CITY           SKY/WX    TMP DP  RH WIND       PRES   REMARKS
GEORGETOWN     FAIR      68  46  45 SE10      30.17S
KINGSTREE      FAIR      72  43  35 CALM      30.14F
ORANGEBURG     SUNNY     72  42  34 E6        30.15F
BARNWELL       FAIR      75  43  31 CALM      30.15F
AIKEN          FAIR      72  41  33 CALM      30.18F
MANNING        FAIR      72  36  26 MISG      30.15S HAZE
COLUMBIA       PTSUNNY   74  39  28 CALM      30.15F
SUMTER         SUNNY     73  41  31 E3        30.13F
FLORENCE       SUNNY     73  43  33 NE6       30.15F
MYRTLE BEACH   SUNNY     66  46  48 SE14      30.18S
N MYRTLE BEACH SUNNY     65  49  56 SE9       30.16F

$$

GAZ063-065-086>088-099>101-113>116-118-119-134>141-150-202000-
...SOUTHEAST GEORGIA...

CITY           SKY/WX    TMP DP  RH WIND       PRES   REMARKS
SAVANNAH ARPT  CLOUDY    76  45  33 MISG      30.14F
HUNTER AAF     MOSUNNY   75  52  44 SE8       30.12F
FORT STEWART   SUNNY     76  49  38 SE5       30.12F
STATESBORO     MOSUNNY   75  50  41 NW3       30.14F
SYLVANIA       PTCLDY   N/A N/A N/A CALM      30.16S
CLAXTON        FAIR      76  51  41 CALM      30.13F

...CSRA...CENTRAL AND FAR SOUTHEAST GEORGIA...

CITY           SKY/WX    TMP DP  RH WIND       PRES   REMARKS
THOMSON        MOSUNNY   73  48  41 CALM      30.20F
AUGUSTA-BUSH   MOSUNNY   75  42  30 CALM      30.15F
AUGUSTA-DANIEL PTSUNNY   72  40  31 CALM      30.16F
SWAINSBORO     FAIR      73  45  35 E6        30.15F
VIDALIA        SUNNY     77  54  44 SE6       30.13F
EASTMAN        FAIR      78  32  18 SE3       30.15F
HAZLEHURST     FAIR      76  53  45 CALM      30.12F
ALMA           MOSUNNY   76  52  43 SE6       30.13F
WAYCROSS       MOSUNNY   81  57  43 E5        30.12F
JESUP          FAIR      77  46  33 SE3       30.13F
BAXLEY         FAIR      77  55  47 SE5       30.12F
BRUNSWICK      SUNNY     73  54  49 E8        30.15F
SAINT SIMONS   SUNNY     71  51  49 E9        30.15F

$$

SCZ027-028-034-036>038-045-046-048>050-GAZ119-141-202000-
...LAKE AND SUPPLEMENTAL COASTAL OBSERVATIONS...

STATION/POSITION TIME  TEMP    WIND        PRES    WAVE   SWELL
                       AIR SEA DIR/SP/G            HT/PER HT/PER/DIR
                 (UTC) (F)     (DEG/KT/KT) (MB)    (FT/S) (FT/S/D)
WINYAH BAY       1830   63      70/  8     1022.0S
LAKE MURRAY      1830   68     200/  3/  3 1021.0F
ACE BASIN NERRS  1830   74     120/  4     1021.0S
FORT PULASKI     1900   61 60  100/ 10/ 11 1021.5
SAPELO ISLAND    1900   74      90/  6     1021.0

$$

ANZ835-935-AMZ111-154-330-350-352-354-370-450-454-472-202000-
...C-MAN AND BUOY OBSERVATIONS...

STATION/POSITION TIME  TEMP    WIND        PRES    WAVE   SWELL
                       AIR SEA DIR/SP/G            HT/PER HT/PER/DIR
                 (UTC) (F)     (DEG/KT/KT) (MB)    (FT/S) (FT/S/D)
BUOY 41004       1850   65 69   20/  8/ 10 1020.5F   2/ 4   2/ 40/ 4
BUOY 41008       1750   63 63  360/  4/  4 1021.8
FOLLY BEACH CMAN 1900   61      90/  7/  7 1021.8F
CAPERS NEARSHORE 1908   60 60   90/  8/ 10 1020.8F
FRIPP NEARSHORE  1908   60 61   80/  6/  8 1021.1F


STATION/POSITION TIME  TEMP    WIND        PRES    WAVE   SWELL
                       AIR SEA DIR/SP/G            HT/PER HT/PER/DIR
                 (UTC) (F)     (DEG/KT/KT) (MB)    (FT/S) (FT/S/D)
5E ST. MARYS GA  1900      65                N/A     1/11
FRYING PAN BUOY  1910   63 65   20/ 12/ 14 1020.9
BUOY 41025       1850   59 63   20/ 17/ 21 1021.0F   3/ 5   2/ 80/ 7
CAPE LOOKOUT NC  1900   58      40/ 15/ 16 1021.2F
BUOY 41002       1850   70 71   30/ 16/ 17 1018.2F   6/ 6   2/ 40/11
BUOY 41010       NOT AVBL
ST AUGUSTINE FL  1900   66 68   30/  7/  7 1021.1F


$$




USA.gov is the U.S. government's official web portal to all federal, state and local government web resources and services.